Wind_Speed
38 37 41 44 44 43 43 42 41 40 39 38 36 36 35 35 33 32 31 29 27 26 26 26 25 23 22 21 21 20 19 19 18 17 16 16 15 14 13 13 12 11 11 11 9 8 9 10 10 10 10 9 9 8 8 9 9 8 7 7 7 7 8 8 10 9 7 8 10 12 12 13 14 16 17 19 21 23 25 26 27 28 29 29 29
43 42 43 44 43 42 42 42 42 41 39 39 38 36 36 35 35 33 32 30 28 26 26 27 28 26 24 23 22 21 21 20 19 19 18 17 17 16 15 15 14 12 11 11 11 11 11 12 12 10 10 10 10 10 9 8 8 10 11 10 9 9 9 11 12 14 14 13 13 15 15 14 16 17 19 21 23 24 26 27 28 29 30 30 30
43 44 45 44 42 42 42 42 42 41 40 40 39 38 37 36 35 35 33 30 29 28 27 27 28 28 27 25 24 22 22 22 21 21 20 19 18 18 17 17 17 16 14 13 12 12 12 13 13 11 11 11 11 11 10 10 10 11 11 12 12 11 10 11 14 16 19 18 16 16 17 16 17 19 21 22 24 25 25 26 27 28 29 28 28
42 44 45 45 44 43 42 41 41 41 41 41 40 39 38 37 37 36 35 32 30 29 29 28 28 28 28 28 26 24 24 24 24 23 22 21 20 19 18 18 18 18 17 15 14 14 14 14 13 12 12 12 12 13 12 12 13 14 14 13 13 13 12 12 14 17 20 21 20 19 19 19 19 19 20 21 22 23 24 25 28 28 27 26 26
40 43 45 45 45 45 43 42 42 41 41 41 40 39 37 36 37 37 36 34 31 30 30 30 29 29 29 29 28 27 26 25 26 25 24 23 22 21 20 19 19 19 18 17 16 16 16 15 15 15 14 14 15 15 14 14 14 14 15 15 15 16 16 16 16 17 19 22 22 21 20 20 20 20 21 22 24 26 27 28 29 29 28 27 26
40 42 43 44 45 45 45 44 43 42 41 40 40 39 36 35 35 36 36 35 33 31 30 31 31 30 30 29 29 29 28 28 28 27 26 24 24 23 22 21 21 20 20 19 18 17 17 17 16 16 16 17 16 16 15 15 15 15 16 16 16 16 16 17 17 17 18 20 21 21 20 19 20 21 22 23 25 27 29 30 30 30 30 29 28
41 41 42 42 44 45 45 45 44 42 41 40 39 37 36 34 33 34 35 34 34 32 30 31 32 32 31 31 30 30 30 30 30 29 28 26 25 24 24 23 22 22 21 20 19 19 19 19 18 18 18 18 17 17 16 16 16 17 17 17 17 16 16 16 16 17 18 19 20 21 21 20 20 21 22 22 24 27 29 31 33 33 32 31 31
42 42 42 41 42 44 44 43 43 42 41 40 38 37 36 35 34 33 33 33 34 33 30 30 31 31 32 32 31 30 30 31 31 31 29 28 27 26 25 24 23 22 21 20 19 19 19 19 19 19 19 19 19 19 18 17 17 17 17 17 17 17 17 16 17 17 18 19 21 23 23 22 21 22 22 22 24 28 29 30 33 34 33 33 35
42 42 42 42 43 43 43 42 42 41 40 40 39 38 37 36 36 35 34 33 33 32 31 29 30 31 31 31 31 31 31 31 32 32 31 30 29 28 27 26 24 23 22 21 20 19 19 19 19 19 19 19 19 18 18 18 18 18 18 17 16 17 17 18 18 19 19 21 23 25 25 24 21 21 21 22 24 29 31 30 32 34 34 36 37
43 42 43 43 43 42 42 41 41 41 41 41 41 40 38 36 36 36 35 34 33 32 32 31 30 30 30 31 31 31 32 32 33 32 31 30 29 29 29 28 27 25 24 23 22 20 19 19 19 19 19 19 19 18 17 17 18 18 18 18 17 18 19 19 20 20 21 23 25 26 26 25 22 20 22 23 25 29 32 33 33 34 36 38 39
44 44 43 43 43 42 42 42 41 41 41 42 41 41 39 37 37 37 36 35 34 33 33 33 32 30 30 30 31 31 32 32 33 33 31 30 29 29 30 30 29 28 26 25 24 22 21 20 20 20 20 20 20 20 20 20 20 19 18 18 19 20 21 22 23 23 23 25 27 28 28 27 24 22 24 26 27 31 34 34 34 35 36 38 40
44 44 42 42 42 43 43 43 42 42 42 42 42 42 41 39 38 38 38 37 36 34 34 35 34 32 30 30 30 30 31 31 32 33 31 30 29 28 29 29 30 29 28 27 26 25 24 22 22 21 21 21 22 23 23 23 22 20 18 19 19 21 22 23 23 24 25 26 29 30 31 29 27 26 28 29 30 33 34 34 35 35 34 36 38
42 43 42 42 43 44 44 44 44 43 43 43 43 42 43 42 40 39 39 38 37 36 35 35 36 35 32 30 30 30 29 29 30 32 31 30 28 27 27 28 29 29 29 28 28 26 25 24 23 23 23 22 22 22 23 23 22 20 20 20 20 20 21 22 23 24 24 26 30 32 32 30 29 29 28 28 30 31 31 32 32 30 30 33 35
41 44 43 43 43 44 44 45 45 45 44 44 44 43 44 44 42 40 39 39 38 37 36 35 36 37 35 32 30 30 29 28 29 29 30 29 28 27 26 27 27 28 28 28 27 26 26 25 24 24 24 23 23 23 23 23 23 22 22 22 21 21 22 22 23 23 24 25 28 31 32 28 26 26 25 25 27 27 26 26 26 26 28 30 32
39 42 43 42 43 44 45 45 46 46 45 45 45 45 45 45 44 41 39 39 39 38 38 36 36 37 38 36 32 30 30 29 28 28 28 27 27 27 26 27 27 27 26 26 26 26 26 25 25 24 24 24 24 24 25 25 25 25 25 24 24 23 23 24 22 22 22 23 25 29 31 26 22 23 25 24 24 24 23 24 25 27 29 29 31
38 41 42 42 43 44 45 45 46 46 46 46 46 46 46 46 46 43 39 38 38 38 38 37 36 36 37 38 36 33 30 29 29 29 28 27 26 25 25 26 28 29 28 26 25 25 26 26 27 26 25 24 24 24 25 25 25 26 26 26 25 25 24 24 23 22 22 22 24 28 30 26 22 23 24 23 23 25 26 27 28 28 30 31 32
37 40 43 44 44 45 45 46 46 46 46 47 47 47 47 47 47 45 41 38 37 38 38 38 38 36 36 37 38 37 33 31 30 30 29 28 27 25 25 25 27 29 31 30 29 28 28 28 28 28 27 26 25 25 25 25 25 25 26 26 25 24 23 23 22 22 22 21 23 26 28 26 23 22 21 21 23 25 26 28 29 29 31 33 32
39 41 44 45 45 46 46 46 47 46 47 48 48 48 47 47 47 46 44 40 37 37 38 38 38 37 36 36 37 38 37 35 34 32 31 29 28 27 27 26 27 28 30 32 33 33 32 32 31 31 30 29 28 27 27 27 27 26 26 26 26 26 26 24 22 20 18 17 19 25 28 25 22 20 19 19 22 23 24 27 29 30 32 32 30
43 44 46 46 46 46 46 46 47 47 48 48 48 47 47 46 46 46 45 43 39 36 36 37 37 36 35 35 35 37 37 37 37 36 34 33 31 30 30 29 29 30 30 30 32 34 35 35 34 34 33 31 30 30 30 29 29 28 27 27 28 28 27 24 19 16 15 17 20 24 26 24 21 21 20 18 19 22 25 27 29 30 32 29 26
44 46 45 45 45 44 45 46 46 47 47 47 46 46 45 45 45 45 45 44 41 37 35 34 34 34 34 33 34 35 35 36 36 36 36 36 35 33 33 32 32 31 31 30 30 31 33 35 36 36 34 33 32 32 32 31 31 30 29 29 30 29 26 20 16 16 17 20 22 23 23 24 23 22 21 19 20 23 26 27 28 29 29 27 26
44 45 44 44 44 44 44 44 44 44 45 45 44 43 43 43 43 44 45 45 42 39 36 33 32 31 31 31 32 32 33 34 35 35 35 36 35 34 34 33 32 30 30 30 30 30 32 34 35 35 35 34 33 33 33 33 32 32 31 31 30 29 26 22 20 20 20 21 23 25 25 25 25 25 24 24 24 25 25 25 27 28 27 27 29
43 44 44 44 44 44 44 43 43 42 41 42 43 43 42 42 42 42 43 44 42 41 38 35 32 30 29 29 30 30 31 32 32 33 33 33 33 33 33 32 31 29 29 29 29 30 31 32 33 33 33 32 32 32 32 31 31 30 30 29 28 28 27 26 25 25 24 23 23 25 26 27 26 26 26 25 24 24 25 25 27 27 27 27 29
42 43 44 44 43 43 43 43 42 39 35 37 41 43 41 40 39 40 41 41 41 41 40 37 34 31 29 29 28 29 29 30 30 30 30 30 31 31 31 30 30 29 29 29 28 28 29 30 30 30 31 31 30 30 30 29 29 29 27 26 26 27 27 27 27 28 28 27 26 25 27 29 28 26 25 23 21 22 24 25 24 25 25 23 20
41 43 44 43 42 42 42 42 40 37 34 34 37 41 41 39 37 38 40 40 39 39 39 38 36 33 30 29 28 27 28 29 30 30 29 29 29 30 30 29 29 29 29 28 28 27 28 28 28 28 28 28 28 27 28 27 27 27 25 24 25 26 27 27 27 28 28 29 29 28 28 28 27 26 24 21 20 22 23 22 21 23 22 18 14
40 42 44 43 42 41 40 39 37 35 34 35 36 37 39 39 38 37 38 39 39 38 38 38 38 36 33 31 30 29 27 28 30 31 30 29 29 29 29 29 29 29 29 28 27 27 27 27 27 27 27 26 26 25 26 26 26 25 24 24 25 26 26 26 26 26 26 26 27 27 26 25 25 24 22 20 20 22 22 20 21 22 20 19 18
40 42 43 42 41 39 38 36 34 34 34 34 35 35 35 36 38 38 37 38 38 37 37 37 37 37 35 33 32 30 29 29 30 31 31 30 29 29 28 28 28 28 29 28 28 29 29 29 29 28 27 26 26 26 26 26 26 26 25 25 24 25 26 25 25 25 25 24 24 24 22 22 22 21 21 21 22 23 22 21 21 19 17 17 17
39 41 42 41 39 38 37 35 33 33 34 34 34 33 32 33 37 38 38 38 38 37 37 37 36 36 37 36 34 32 30 30 30 31 31 31 31 30 27 26 25 27 29 30 30 30 31 31 31 30 28 27 27 27 27 27 27 27 27 26 25 25 26 26 25 25 24 24 23 21 20 21 21 21 22 22 23 23 23 20 17 14 12 11 11
39 41 40 39 38 37 37 35 33 34 36 35 33 32 32 32 34 37 39 39 39 39 38 37 37 37 36 35 34 33 33 33 33 33 34 34 33 31 29 27 26 26 27 29 30 30 31 31 31 31 30 30 29 29 28 28 29 29 29 28 27 27 26 25 24 24 23 22 21 20 21 22 22 21 22 22 21 21 20 15 11 8 7 8 8
38 40 39 38 38 37 37 36 35 36 36 35 34 33 32 32 33 34 36 37 37 38 39 39 39 37 35 35 34 33 35 36 35 34 34 33 31 31 29 27 26 25 23 23 26 29 31 31 31 31 31 32 32 32 32 32 32 32 32 32 31 30 28 26 24 23 23 22 21 22 23 24 24 22 20 18 17 15 12 9 6 5 5 6 5
37 39 38 37 37 37 37 36 37 37 35 36 38 37 35 34 33 32 33 34 34 35 35 36 37 36 33 32 33 33 34 34 32 31 30 30 30 29 27 24 22 20 19 19 23 28 32 34 33 32 32 33 34 34 34 34 33 32 33 32 30 28 27 24 22 23 24 21 21 23 23 21 20 18 14 12 10 8 7 6 5 5 4 3 2
37 38 38 38 38 38 38 37 38 37 36 39 41 39 36 35 34 32 32 32 32 32 32 32 32 32 31 31 31 31 31 29 28 28 28 28 28 27 23 20 18 17 17 19 24 29 32 35 36 34 33 34 34 34 33 30 28 29 30 29 26 23 22 19 17 19 22 21 21 23 21 17 13 10 8 8 7 6 5 5 5 4 3 2 2
38 38 38 38 39 39 39 39 39 38 37 39 40 39 37 36 34 33 31 29 29 31 31 30 30 29 30 30 30 29 29 28 27 27 26 25 25 24 22 19 19 19 18 19 23 28 32 35 36 35 34 34 32 30 28 25 24 26 28 26 23 20 20 18 17 19 23 25 23 21 16 12 9 8 8 8 7 7 6 5 5 5 4 3 3
37 39 39 39 40 40 39 39 41 39 37 37 39 38 37 35 34 34 33 31 29 29 30 31 31 30 30 31 31 29 28 28 27 26 25 24 24 23 21 19 19 21 21 20 21 25 29 34 34 32 32 32 28 24 22 21 22 25 26 25 22 20 22 23 21 22 23 21 16 12 10 8 8 10 11 10 8 8 7 5 6 7 6 5 4
34 36 36 37 41 42 39 38 41 40 36 34 36 36 35 34 33 33 34 33 31 30 30 31 32 32 31 30 30 29 27 26 26 26 26 25 23 21 20 20 20 22 23 23 22 22 25 30 32 29 28 27 24 21 20 21 23 25 24 22 20 20 21 19 18 19 18 12 7 7 8 8 10 12 13 11 9 8 7 5 5 8 9 8 8
30 30 30 31 34 39 38 36 38 38 34 30 30 31 31 32 32 32 33 34 33 32 32 32 32 32 31 30 28 27 25 25 25 25 24 24 23 21 21 21 23 24 24 25 25 23 22 25 27 27 26 26 24 24 24 26 26 25 22 21 21 21 17 13 14 17 14 9 9 11 12 13 14 12 10 8 7 6 6 5 4 6 9 9 8
25 26 28 28 29 33 34 32 34 36 32 26 25 28 30 29 28 29 31 32 32 32 32 32 30 30 29 28 28 27 25 24 24 23 22 22 21 21 22 23 24 25 25 25 25 24 21 21 23 25 27 27 26 27 28 28 28 27 25 24 26 24 17 11 15 19 16 13 13 14 14 13 12 9 7 7 6 5 6 6 5 6 8 9 8
26 26 27 28 27 27 28 28 31 33 32 26 23 26 28 26 25 26 29 31 32 32 31 29 28 28 28 28 28 27 26 25 24 23 23 22 21 22 23 24 25 25 24 23 24 23 21 21 23 26 27 27 27 28 29 28 28 27 26 25 25 21 14 13 18 19 17 16 15 12 10 10 9 8 9 8 5 5 7 6 5 6 7 10 10
26 25 25 26 26 26 26 27 29 30 31 28 24 24 25 26 25 25 27 28 30 30 28 27 27 28 29 29 29 28 27 26 26 26 26 25 24 25 26 25 23 22 22 23 25 26 24 24 25 27 26 25 25 27 27 25 25 25 25 23 21 17 15 17 17 16 16 17 15 12 11 10 9 9 11 9 6 6 7 6 4 5 6 9 10
21 24 24 25 26 27 28 29 28 27 27 27 25 24 27 27 26 25 25 26 26 25 24 24 25 27 30 31 30 29 29 29 29 29 28 27 27 28 28 25 22 21 22 23 25 27 27 27 27 28 28 26 25 25 25 24 24 23 21 19 18 17 17 17 14 13 14 13 11 10 11 10 9 9 9 8 6 6 6 5 4 4 6 9 11
17 22 24 24 25 26 27 29 29 28 27 26 24 23 25 25 23 23 25 26 26 25 23 22 22 23 25 26 26 27 28 29 29 28 27 27 28 28 26 24 24 25 26 25 24 25 25 25 25 26 25 22 20 19 20 20 19 17 16 16 15 15 15 13 11 12 13 10 7 8 9 8 7 6 4 5 6 7 8 7 5 5 7 11 12
15 19 21 24 26 27 26 27 27 26 26 25 24 23 23 23 23 24 24 24 23 22 20 19 18 17 16 16 19 23 25 25 25 24 24 25 26 24 22 22 23 25 25 24 23 23 23 23 21 20 17 15 13 13 13 13 13 12 11 10 10 10 9 7 8 12 14 10 6 6 7 6 7 7 5 5 7 8 9 8 6 6 10 13 14
16 18 18 20 23 24 23 22 22 22 22 21 20 20 19 19 19 20 18 17 16 15 14 14 13 13 14 16 18 20 20 21 22 23 23 23 23 22 21 20 20 20 20 19 19 20 21 21 19 18 16 15 15 15 16 16 16 15 12 11 13 14 13 11 12 14 15 12 9 9 9 8 9 10 8 8 8 7 7 7 8 10 12 14 14
18 20 21 20 19 19 19 18 17 18 19 19 18 18 16 15 15 14 13 13 12 12 12 13 14 17 19 20 19 19 20 22 22 22 21 20 19 19 20 19 17 16 15 15 17 18 19 20 20 18 18 18 18 19 20 21 21 20 19 18 19 19 17 17 18 19 19 16 14 14 13 11 11 12 10 8 8 7 7 8 10 11 12 13 13
19 20 23 25 25 23 21 20 19 17 16 16 18 18 16 15 15 14 14 15 16 16 17 18 20 21 21 19 18 19 21 21 21 20 20 20 19 19 19 18 17 17 18 18 19 19 19 19 19 19 19 19 19 18 19 20 21 21 21 20 20 18 17 19 20 20 19 17 15 15 14 13 13 13 11 9 8 8 9 12 13 14 14 15 15
18 19 20 22 25 27 25 23 22 22 20 19 18 18 17 17 16 15 16 18 19 20 20 21 20 20 20 19 19 20 20 20 20 20 20 20 20 20 20 20 20 20 21 21 21 20 19 18 18 18 17 18 18 18 18 18 18 19 19 20 19 17 16 17 17 17 17 15 12 12 12 11 11 11 12 12 12 12 14 17 18 18 18 18 18
18 19 19 19 21 25 26 24 22 22 22 23 25 25 25 24 24 25 25 25 24 22 21 20 19 18 18 18 18 17 17 17 18 18 18 18 18 19 20 21 21 21 21 19 19 19 18 17 16 15 14 15 16 17 16 15 14 13 14 15 16 15 14 15 14 14 13 11 9 9 10 10 11 12 12 12 13 14 16 18 19 19 19 20 21
18 19 20 20 19 19 21 22 21 21 21 22 24 26 27 27 27 28 28 28 26 25 24 23 20 19 18 18 17 17 16 16 17 17 18 18 18 19 20 20 21 20 19 17 16 16 16 15 14 13 13 14 13 13 12 12 10 9 9 10 10 10 10 11 11 10 10 10 10 9 9 10 11 11 11 12 14 15 16 18 18 18 18 18 19
17 17 18 19 18 17 17 17 17 18 20 21 22 24 25 25 26 26 25 24 23 22 23 23 22 20 19 18 17 17 17 17 18 19 20 20 21 21 20 20 19 18 17 17 17 17 17 16 14 14 13 12 11 11 10 9 8 7 7 6 5 5 6 6 7 8 9 10 10 10 11 12 12 13 14 15 15 15 14 14 13 14 14 13 12
14 16 16 16 17 17 15 13 13 15 16 18 20 21 22 22 23 23 22 22 21 21 21 20 18 16 15 14 14 13 13 14 15 16 17 18 19 20 20 19 18 17 17 18 18 17 16 14 14 13 12 11 10 9 8 7 6 5 5 4 4 4 5 6 7 8 9 10 10 10 11 11 12 12 12 11 11 10 10 10 11 11 12 12 11
12 14 15 15 16 15 14 12 12 13 13 13 14 16 17 18 19 20 19 18 17 17 17 17 15 13 12 12 12 12 12 13 14 14 15 16 18 19 20 19 19 18 18 17 16 15 14 13 13 12 11 10 9 8 7 6 5 3 2 3 3 5 6 7 7 8 8 8 7 7 7 8 8 7 7 8 9 10 10 10 10 11 12 11 11
13 13 12 13 14 13 12 11 12 12 12 12 12 13 12 12 12 12 12 12 12 13 14 14 15 15 15 15 16 15 15 15 16 16 16 16 17 17 17 17 17 16 16 16 15 15 14 14 12 11 10 8 7 6 4 3 2 1 2 2 3 4 5 6 6 6 6 6 6 6 7 7 7 5 6 9 11 12 12 12 10 9 10 11 11
Wind_Direction
199 203 209 212 215 217 218 217 216 217 217 217 218 220 221 222 225 228 228 228 228 226 222 221 226 232 233 232 230 230 236 240 240 239 238 234 234 235 235 238 239 232 232 237 234 234 243 248 245 238 236 239 240 233 231 246 268 280 283 275 271 278 278 278 284 285 278 278 281 281 283 286 287 287 287 289 292 297 302 308 311 312 313 313 311
200 204 208 210 213 216 217 217 216 216 216 216 217 218 220 221 223 226 227 226 225 226 226 223 222 226 229 232 232 228 228 235 237 237 240 237 233 233 231 234 241 240 234 236 236 232 233 241 249 247 244 244 246 249 244 240 257 275 287 291 285 283 283 282 288 295 298 299 300 300 302 302 300 301 302 303 304 305 306 309 311 312 313 313 311
201 205 207 209 212 215 216 218 217 216 217 219 219 220 221 222 223 222 223 224 223 222 225 227 225 225 226 229 233 229 225 228 233 233 238 242 239 235 232 233 240 245 242 240 241 240 236 240 247 249 248 249 250 253 248 234 235 248 262 278 286 286 282 279 284 292 297 301 303 303 305 304 302 303 303 302 302 303 303 307 311 312 314 313 311
199 204 208 209 211 213 215 217 218 218 219 220 221 221 222 223 224 223 221 221 222 221 222 226 229 228 225 225 230 230 225 225 229 230 232 240 245 243 237 235 238 245 246 243 241 242 242 243 246 247 246 247 249 253 252 243 237 236 237 245 257 265 264 261 269 281 291 297 301 303 305 304 302 303 304 304 306 307 308 312 315 317 316 313 311
198 202 206 208 210 213 215 216 218 219 219 220 221 220 218 221 224 224 223 222 221 221 221 222 225 229 229 226 226 229 228 224 226 228 228 233 242 247 244 239 239 244 248 246 241 241 243 244 244 244 241 240 243 248 252 253 249 246 246 245 246 253 257 258 262 271 281 292 299 302 303 303 305 309 312 315 316 317 318 319 321 322 320 316 314
197 199 202 205 208 212 214 215 217 219 219 218 219 218 213 213 219 224 224 223 219 218 221 221 222 227 231 231 229 229 229 226 226 229 229 231 238 243 245 245 243 243 247 249 246 241 241 242 243 245 243 241 241 243 246 251 254 253 254 256 257 258 261 265 270 274 281 290 297 299 299 302 306 310 315 316 314 315 318 320 322 324 324 319 316
198 198 198 201 205 209 213 215 217 217 218 216 214 213 210 206 212 220 223 223 218 214 217 221 222 224 229 233 232 231 231 229 229 230 231 233 237 240 241 244 246 245 245 247 248 245 242 242 244 247 248 246 244 243 242 243 250 256 257 259 262 264 265 267 269 272 278 285 291 293 296 300 301 304 309 309 308 311 316 318 321 324 321 314 310
199 199 198 199 202 206 210 213 214 214 215 214 210 208 208 206 208 215 219 220 217 212 212 218 222 223 226 231 233 233 232 231 231 232 233 233 236 239 240 240 242 245 247 247 246 245 243 242 246 248 248 248 248 247 245 243 247 254 259 262 266 269 270 271 271 270 270 275 282 288 291 293 294 299 305 308 308 311 314 314 316 316 311 304 304
199 199 199 200 202 204 205 207 209 210 212 212 208 206 207 207 207 211 215 217 215 212 210 214 220 222 223 228 231 231 231 233 234 235 236 234 233 235 239 240 239 240 245 247 247 246 240 235 239 245 248 249 250 250 250 248 247 249 254 262 267 269 271 274 276 274 273 275 281 287 289 290 291 296 301 303 303 306 309 309 307 307 305 302 305
200 199 200 202 202 202 202 203 206 208 209 210 208 206 205 207 206 208 213 215 214 212 209 210 216 221 222 225 229 229 228 233 237 238 238 238 236 234 236 241 242 238 239 241 243 244 240 234 234 238 243 249 254 255 256 255 253 251 252 258 262 268 272 275 276 278 279 281 284 288 288 287 289 291 292 293 293 296 302 306 305 305 305 305 310
202 201 202 202 202 201 200 202 203 205 208 210 209 206 204 206 207 207 210 214 216 214 210 208 211 218 222 224 228 231 230 233 238 240 240 240 239 236 236 240 243 243 240 238 238 240 239 237 238 236 236 241 247 251 252 255 258 259 258 259 262 266 270 274 277 280 281 283 285 286 285 285 287 287 287 288 289 292 299 303 303 304 306 309 313
204 202 203 202 202 202 201 201 202 204 206 208 210 208 204 204 207 207 208 212 215 215 212 209 208 213 220 222 224 230 234 235 237 240 241 241 240 239 238 239 241 244 244 242 240 241 240 238 238 238 237 237 240 244 247 252 259 262 261 263 264 266 269 272 276 279 280 282 284 285 286 286 286 285 286 288 291 295 299 299 299 302 306 309 312
205 202 203 203 203 203 202 202 202 204 206 208 209 209 206 204 206 208 208 210 213 215 215 213 210 210 215 221 223 226 231 234 236 238 241 243 241 240 239 239 240 242 245 246 245 245 247 246 243 240 239 239 241 245 250 256 262 263 264 266 268 269 272 274 275 278 280 281 284 288 290 289 287 289 291 292 294 299 300 300 301 302 303 304 309
205 203 204 205 205 203 202 203 204 205 206 207 208 208 207 206 206 208 209 210 212 215 216 216 214 212 212 217 224 227 229 232 234 237 240 243 242 240 239 239 239 239 243 247 248 247 248 251 251 248 244 241 240 244 250 258 265 268 269 272 273 275 276 277 278 280 281 283 286 291 295 294 292 295 297 295 298 302 303 302 301 298 299 303 308
205 204 204 205 206 205 204 204 204 205 206 206 208 209 209 208 207 207 209 210 212 215 216 216 217 216 214 214 220 225 228 230 234 237 241 244 243 241 239 237 236 236 237 241 246 249 249 251 253 253 252 249 246 246 249 255 262 269 273 275 277 278 279 279 281 283 285 288 290 293 298 300 297 298 300 299 301 301 298 295 295 297 302 306 308
206 204 203 205 207 206 206 206 205 205 206 206 208 209 209 209 208 207 207 210 212 215 217 217 218 219 218 216 217 221 224 227 233 237 241 245 244 242 241 238 236 235 233 234 237 243 247 250 252 254 255 255 255 254 254 254 258 265 271 275 278 280 282 284 287 289 290 292 293 294 297 298 298 301 304 304 301 298 296 295 298 303 306 307 309
210 206 204 206 208 209 208 207 206 206 206 207 208 210 210 210 209 207 206 208 211 214 216 218 218 219 221 220 219 220 221 224 229 233 238 242 243 242 241 240 238 237 235 234 233 234 238 243 248 252 256 259 260 260 260 258 259 262 266 270 273 274 276 279 282 284 287 289 291 292 293 295 299 305 308 306 302 299 299 301 304 308 309 309 311
214 210 207 207 208 210 209 208 208 207 207 208 209 210 211 211 210 208 207 207 210 213 215 218 219 220 221 223 223 222 223 225 228 230 233 236 239 241 242 242 242 242 240 238 237 237 238 240 243 248 253 258 260 261 262 261 262 263 265 265 265 265 267 272 273 274 277 278 280 286 291 295 297 299 301 302 300 299 300 302 304 307 307 308 310
213 212 211 208 208 210 210 209 208 208 208 208 209 210 211 211 210 209 208 209 211 212 215 217 220 221 222 224 226 228 228 229 231 233 235 236 237 239 242 244 247 249 249 247 244 243 243 245 246 249 253 256 257 259 261 262 264 266 266 265 265 266 269 273 270 263 258 256 261 276 289 292 286 283 288 294 293 292 294 296 298 301 302 304 311
212 213 212 208 208 210 210 209 209 209 209 208 208 208 209 209 209 210 210 211 211 212 214 216 218 221 222 223 227 231 233 233 234 237 239 241 241 242 244 247 251 254 256 255 254 252 250 250 251 253 256 257 258 259 261 264 266 268 267 267 267 268 269 267 254 241 240 245 252 263 278 286 284 279 280 284 285 285 288 291 294 296 297 297 305
211 211 210 208 208 209 210 209 209 208 208 208 207 208 209 210 211 211 211 212 212 212 213 215 216 220 223 224 226 230 234 236 237 240 243 245 245 245 246 250 253 256 257 258 258 258 257 256 256 257 258 259 260 261 263 265 267 267 267 268 268 267 264 256 245 236 232 236 246 253 261 273 281 281 280 283 284 284 286 290 293 294 290 291 302
209 209 209 208 208 209 209 208 207 206 207 208 209 209 210 211 212 212 211 212 213 213 214 215 217 219 222 225 226 228 232 238 242 244 246 247 247 247 248 252 255 255 255 256 257 258 259 260 261 261 262 262 261 262 262 264 265 264 265 265 265 263 260 254 246 239 231 229 239 248 251 257 266 273 277 281 283 284 286 289 291 290 285 289 302
208 207 207 206 207 208 209 208 207 205 205 209 210 210 210 210 211 212 212 212 213 214 215 215 216 218 221 224 226 227 230 235 242 246 247 248 247 248 250 252 253 252 251 252 254 257 259 260 260 261 262 263 263 264 264 264 264 263 263 263 261 260 258 254 246 240 235 231 232 238 247 254 260 265 268 271 271 271 274 281 285 280 277 284 294
206 205 206 206 206 207 208 207 206 204 204 207 208 208 209 208 208 211 212 212 212 214 215 215 216 217 220 222 224 227 228 232 238 243 246 248 247 248 249 250 250 250 250 250 252 253 254 255 256 257 258 260 262 263 264 264 263 263 262 260 258 256 254 252 248 244 239 236 234 236 242 250 256 258 258 258 254 253 261 272 277 274 275 280 280
205 203 205 204 204 206 207 205 205 204 205 206 206 205 206 206 207 210 210 210 211 212 213 215 216 217 218 220 222 224 226 230 235 239 243 248 249 249 249 249 249 249 249 249 246 244 243 246 250 251 253 254 254 255 257 259 260 261 260 258 257 257 255 253 251 247 243 240 239 239 239 241 245 249 250 249 247 247 251 258 265 269 272 270 266
204 202 203 203 203 205 205 203 205 205 205 207 206 203 203 204 206 207 207 208 209 210 212 214 216 217 219 220 222 223 225 229 235 240 243 246 249 249 249 248 248 248 248 246 242 238 236 238 241 244 246 247 248 249 252 255 257 258 258 258 259 259 258 255 251 249 247 243 240 241 241 238 236 236 238 239 237 237 241 250 259 262 260 258 258
204 200 201 200 200 203 203 202 204 206 205 204 204 202 201 201 203 205 207 208 208 209 211 213 215 217 220 220 222 224 225 226 231 237 241 244 248 249 247 245 245 243 241 239 238 236 236 236 237 239 241 243 245 247 249 250 252 254 256 258 261 262 261 258 254 251 250 246 243 243 241 235 229 228 229 231 231 233 242 254 259 253 248 251 258
203 199 199 199 199 202 203 203 203 204 203 202 201 200 199 200 203 207 210 211 210 209 211 213 216 218 220 221 222 223 225 227 228 233 240 244 247 247 245 244 243 240 237 237 236 235 236 238 238 238 240 241 243 244 245 246 249 253 256 259 262 263 261 256 251 248 245 244 244 243 237 231 229 228 230 232 233 238 245 249 244 239 245 254 260
201 198 196 197 199 201 203 203 202 202 201 200 199 198 198 200 203 207 212 214 214 215 215 216 217 219 220 222 223 223 225 229 230 233 239 243 244 246 249 250 248 244 243 243 239 234 235 237 238 239 240 240 241 242 245 248 250 252 255 259 261 262 258 252 246 243 244 246 243 236 230 229 231 232 233 234 235 237 240 236 229 235 244 248 261
197 195 195 197 199 201 202 202 201 200 198 198 199 198 196 197 199 204 209 212 214 217 219 219 220 219 219 222 226 227 229 232 231 231 235 239 241 246 250 251 249 247 246 246 241 236 233 234 236 238 240 241 241 242 244 247 250 252 255 258 258 257 254 248 242 243 248 248 239 230 226 228 237 241 233 226 231 238 229 216 223 239 246 251 283
195 194 196 198 199 200 200 200 199 197 196 198 199 198 195 194 196 201 207 211 212 213 216 219 220 220 220 221 225 227 229 231 231 230 234 239 241 243 243 241 241 243 241 237 235 235 233 232 234 236 238 242 244 244 243 243 246 248 251 252 252 250 249 246 239 239 241 236 230 232 233 234 243 248 224 210 227 240 231 224 235 253 276 305 280
197 197 199 200 200 200 199 198 196 193 194 198 200 198 196 194 195 198 203 208 211 212 213 215 217 218 218 220 222 224 225 226 228 230 234 237 237 237 239 240 241 243 240 232 230 232 232 232 233 234 235 238 243 245 242 241 242 243 245 247 248 242 235 232 230 230 231 232 233 235 229 217 213 210 208 214 219 215 224 250 259 260 281 304 287
203 203 203 202 200 198 196 196 194 190 193 198 200 198 198 197 197 199 201 204 208 212 213 214 215 215 215 217 220 222 224 226 228 228 229 231 234 237 238 237 237 240 241 239 237 235 233 233 233 233 233 236 239 243 242 238 240 242 241 244 245 233 221 223 228 228 230 236 238 227 210 201 198 196 201 206 198 192 204 234 248 256 277 302 305
205 204 204 203 200 196 194 194 193 189 190 198 200 198 200 202 202 203 204 204 207 210 212 213 214 213 214 216 219 222 224 227 228 229 229 231 235 236 233 230 230 233 238 243 246 244 239 236 234 233 236 237 233 231 232 232 233 237 236 235 232 221 216 223 230 228 225 224 210 191 188 190 192 195 201 203 199 198 203 206 231 258 272 287 304
207 205 209 208 201 195 192 193 191 186 187 195 200 199 200 204 207 208 209 209 210 211 211 213 214 215 216 218 220 222 223 224 226 229 232 233 233 231 230 229 231 233 237 244 247 245 242 241 236 233 237 238 229 224 226 227 227 228 228 223 220 222 231 238 228 216 207 189 175 182 185 186 193 201 211 221 224 219 211 202 219 255 265 282 317
205 207 214 214 203 194 191 189 186 183 183 187 192 191 192 197 206 212 215 215 215 214 214 214 214 216 219 220 222 224 223 223 224 227 230 230 230 230 231 233 236 239 243 245 245 241 237 237 235 233 236 237 231 226 226 227 225 226 229 228 229 238 250 240 208 198 190 178 181 191 195 201 205 198 199 226 238 211 196 206 218 238 264 294 329
201 205 206 204 202 198 192 183 177 179 181 181 182 184 185 191 201 208 211 213 215 217 218 217 216 218 219 220 222 224 225 225 224 223 222 222 223 228 234 239 244 249 248 242 236 231 227 227 230 233 235 236 232 228 227 227 225 227 232 235 236 239 234 208 197 194 185 181 190 199 201 206 207 185 182 207 222 189 185 204 221 234 268 300 314
198 202 194 187 190 195 191 180 173 175 179 181 181 179 179 184 191 195 198 205 212 216 219 219 218 219 220 220 222 224 225 225 225 224 224 225 226 232 239 243 243 242 239 232 226 225 224 224 226 230 232 231 228 227 227 226 224 227 232 234 231 222 201 190 194 194 186 186 196 199 191 192 198 190 185 189 200 206 212 223 232 237 273 302 304
182 185 180 175 177 178 174 168 165 165 170 176 180 178 178 183 187 188 191 197 203 207 212 214 215 218 221 223 224 225 225 226 227 228 230 231 234 238 241 238 227 220 221 222 221 222 224 223 223 227 228 226 224 227 231 233 235 236 232 222 211 199 188 187 194 195 191 194 199 190 182 187 198 201 198 196 201 217 231 242 247 251 284 305 300
152 161 169 175 177 171 162 157 154 152 153 158 161 164 169 174 176 177 182 188 192 196 200 205 212 220 226 226 225 224 224 225 227 228 228 229 231 233 231 224 215 211 212 213 212 214 218 218 219 222 223 222 223 228 231 230 227 218 203 191 188 189 192 196 198 186 177 178 183 176 173 186 203 207 213 211 207 221 243 257 269 281 289 292 288
121 136 152 167 172 168 160 153 150 149 150 152 151 152 157 162 165 171 178 183 187 193 200 209 222 231 229 220 215 216 217 218 218 216 214 214 215 213 208 206 206 207 207 207 207 210 213 213 210 209 206 201 202 205 203 198 188 176 172 177 182 181 178 175 171 168 162 155 159 172 176 195 212 210 214 224 226 236 251 263 281 292 287 286 286
103 108 120 139 153 157 154 148 146 148 151 153 155 157 161 166 170 175 182 187 191 200 211 218 221 212 193 185 189 194 196 195 195 195 195 197 199 195 192 193 197 200 201 201 200 202 203 198 192 190 188 183 180 174 164 159 160 158 154 155 158 161 161 156 155 163 166 161 164 178 185 195 207 209 215 234 245 250 257 271 286 290 289 292 294
85 88 91 99 112 127 133 135 141 148 151 152 155 159 166 177 184 192 202 204 202 203 201 190 177 170 167 169 175 178 176 174 176 179 180 181 184 184 184 186 186 184 180 176 175 180 183 180 179 182 180 174 171 168 163 162 165 164 159 158 160 165 173 172 167 169 172 172 177 187 192 198 210 215 220 235 249 257 266 274 278 280 282 288 291
69 77 82 83 87 95 105 111 117 125 135 146 152 156 164 175 183 191 195 186 173 168 164 158 155 157 157 159 166 171 170 169 170 171 170 170 172 173 173 173 170 165 159 157 160 168 175 173 170 170 169 166 169 173 172 172 171 168 167 168 168 170 175 177 176 179 184 186 190 199 204 209 218 223 228 237 246 251 258 265 269 271 273 277 280
64 69 74 79 84 89 93 98 103 108 113 120 125 127 133 139 140 141 146 146 144 144 144 141 142 147 150 154 161 163 161 161 162 163 162 163 164 165 164 164 165 165 165 164 165 170 174 174 170 170 171 171 173 175 174 171 171 172 174 178 179 179 180 179 178 183 191 197 206 216 224 232 241 249 259 268 271 269 268 269 271 271 270 271 273
74 74 73 74 81 88 92 94 99 106 111 114 113 111 112 116 117 118 120 122 124 130 134 136 136 138 141 146 151 152 152 156 158 157 154 153 153 155 157 158 160 162 165 166 168 173 177 179 177 176 175 171 171 174 176 176 177 179 183 186 189 192 196 196 195 198 208 224 242 253 257 264 271 276 278 278 276 274 273 273 273 272 269 268 269
73 81 85 85 85 92 98 101 102 105 111 116 119 118 117 118 119 120 121 122 124 128 131 134 137 139 139 140 142 145 150 155 156 154 154 156 157 157 157 156 158 159 159 159 163 167 169 168 163 160 161 163 166 171 176 180 181 180 182 188 195 201 209 217 225 234 244 254 265 270 273 278 279 278 277 274 271 272 275 279 281 281 280 278 276
58 72 85 91 94 98 102 106 110 113 115 118 122 125 127 128 128 126 125 124 123 124 128 133 136 139 139 140 143 147 149 150 150 150 153 159 164 164 160 160 163 162 155 149 149 151 152 151 151 151 153 155 158 161 163 168 174 177 181 191 203 218 233 244 252 258 262 267 273 277 281 283 282 279 277 275 273 274 277 279 283 290 295 299 301
61 67 73 83 93 99 100 102 112 120 122 123 125 127 130 131 131 131 130 127 124 126 132 138 138 136 134 136 142 148 151 152 153 151 148 150 155 156 154 155 157 155 150 146 144 143 144 146 147 149 150 149 150 155 157 159 163 171 182 197 214 241 262 270 275 276 277 280 282 281 280 281 282 282 282 280 277 276 277 276 282 293 303 309 313
81 78 76 78 86 91 93 98 109 117 120 123 125 126 129 130 130 129 130 130 129 129 132 136 139 139 138 138 141 143 142 140 139 135 131 131 135 140 144 146 147 146 146 144 141 139 140 140 138 140 142 143 143 146 148 152 160 174 205 242 259 271 277 281 285 287 287 284 281 276 275 278 283 290 297 294 287 288 293 297 300 304 307 306 302
94 94 90 88 88 88 90 97 105 110 111 112 111 111 114 117 116 115 119 128 134 133 131 130 132 132 129 125 122 121 120 122 124 124 121 119 120 125 131 135 138 139 141 140 138 137 137 136 134 134 133 133 135 138 142 150 169 211 258 268 274 281 284 285 286 285 282 278 276 276 279 285 288 291 289 286 288 296 305 310 313 316 316 313 310
Height
1513 1514 1516 1519 1522 1525 1528 1531 1534 1537 1540 1543 1545 1548 1551 1553 1555 1557 1559 1562 1563 1565 1567 1569 1570 1571 1573 1575 1576 1577 1579 1580 1581 1582 1584 1585 1586 1587 1588 1589 1590 1591 1592 1592 1593 1594 1594 1595 1595 1596 1596 1597 1597 1597 1598 1598 1598 1598 1599 1599 1599 1600 1599 1599 1598 1598 1599 1599 1598 1598 1598 1597 1596 1595 1594 1593 1591 1590 1588 1587 1585 1583 1581 1579 1579
1508 1510 1512 1516 1518 1521 1524 1527 1531 1534 1536 1540 1542 1545 1547 1550 1552 1555 1557 1559 1561 1562 1564 1566 1568 1569 1570 1572 1574 1575 1577 1577 1579 1580 1581 1583 1584 1585 1586 1587 1588 1589 1590 1591 1592 1592 1593 1594 1594 1595 1595 1595 1596 1596 1596 1597 1597 1597 1598 1598 1598 1599 1598 1598 1597 1596 1596 1597 1596 1596 1595 1595 1594 1593 1592 1590 1589 1588 1586 1585 1583 1580 1578 1577 1577
1505 1506 1508 1512 1514 1517 1521 1524 1527 1530 1533 1536 1539 1541 1544 1546 1549 1552 1554 1556 1558 1560 1561 1563 1565 1567 1568 1570 1571 1573 1575 1576 1577 1578 1579 1580 1582 1583 1584 1585 1586 1587 1588 1589 1590 1591 1592 1592 1593 1593 1594 1594 1594 1595 1595 1596 1597 1597 1597 1597 1598 1598 1598 1597 1596 1595 1594 1594 1595 1594 1594 1594 1593 1592 1590 1589 1587 1586 1585 1583 1580 1578 1577 1577 1577
1502 1503 1505 1508 1511 1513 1517 1520 1523 1526 1529 1532 1535 1538 1541 1543 1546 1548 1551 1553 1555 1557 1559 1560 1562 1564 1566 1567 1569 1571 1572 1574 1575 1576 1577 1578 1579 1581 1582 1583 1584 1585 1586 1587 1588 1589 1590 1591 1591 1592 1592 1593 1593 1594 1594 1594 1595 1595 1596 1597 1597 1597 1597 1597 1596 1595 1593 1592 1592 1592 1592 1591 1591 1590 1589 1587 1585 1584 1582 1580 1577 1575 1575 1576 1576
1500 1500 1501 1504 1507 1509 1512 1516 1519 1522 1525 1529 1531 1534 1537 1540 1542 1545 1547 1550 1552 1554 1556 1557 1559 1560 1562 1564 1566 1568 1570 1571 1572 1574 1575 1576 1577 1579 1580 1581 1582 1583 1584 1585 1586 1587 1588 1589 1590 1590 1591 1591 1592 1592 1593 1593 1593 1593 1594 1594 1595 1596 1596 1596 1596 1595 1593 1591 1590 1590 1590 1589 1589 1588 1586 1584 1582 1581 1579 1577 1575 1573 1574 1575 1575
1497 1497 1499 1501 1503 1505 1508 1511 1514 1517 1521 1525 1528 1531 1534 1537 1539 1541 1543 1546 1549 1551 1552 1554 1556 1557 1559 1561 1563 1565 1567 1568 1570 1571 1573 1574 1575 1577 1578 1579 1580 1581 1582 1583 1584 1585 1586 1587 1588 1588 1589 1589 1590 1591 1591 1592 1592 1592 1592 1592 1593 1593 1594 1594 1594 1593 1592 1591 1588 1588 1588 1588 1587 1586 1584 1583 1580 1578 1575 1574 1573 1572 1572 1572 1572
1493 1494 1495 1497 1499 1502 1504 1507 1510 1513 1517 1521 1524 1527 1530 1533 1536 1537 1540 1543 1546 1548 1549 1551 1552 1554 1556 1558 1560 1562 1563 1565 1567 1568 1570 1572 1573 1574 1575 1576 1578 1579 1580 1581 1582 1583 1584 1585 1586 1586 1587 1587 1588 1589 1590 1590 1590 1590 1590 1590 1591 1591 1591 1592 1592 1591 1591 1590 1588 1586 1585 1586 1586 1584 1583 1582 1579 1576 1574 1572 1570 1570 1571 1570 1569
1490 1490 1491 1493 1495 1497 1500 1503 1507 1510 1513 1517 1521 1524 1527 1530 1532 1534 1537 1539 1542 1545 1547 1548 1549 1551 1553 1554 1556 1559 1560 1562 1564 1565 1567 1569 1570 1571 1572 1574 1575 1576 1577 1578 1580 1581 1581 1583 1583 1584 1585 1585 1586 1587 1588 1588 1589 1589 1589 1589 1589 1589 1589 1589 1590 1590 1589 1588 1586 1584 1584 1585 1585 1583 1582 1580 1577 1574 1574 1572 1570 1569 1570 1568 1567
1488 1487 1488 1489 1491 1493 1497 1500 1504 1507 1510 1514 1517 1520 1523 1526 1529 1531 1533 1535 1538 1541 1544 1546 1546 1548 1550 1551 1553 1555 1557 1558 1560 1561 1563 1566 1567 1568 1569 1571 1572 1573 1574 1576 1577 1578 1579 1580 1581 1582 1583 1583 1584 1585 1586 1586 1587 1587 1587 1587 1587 1587 1587 1587 1587 1587 1587 1586 1584 1582 1582 1582 1584 1583 1580 1579 1576 1573 1572 1571 1570 1569 1569 1566 1565
1485 1484 1484 1485 1487 1490 1493 1497 1500 1504 1507 1510 1513 1517 1520 1523 1526 1528 1530 1532 1534 1537 1540 1543 1544 1545 1547 1549 1550 1552 1553 1555 1556 1558 1560 1562 1565 1566 1567 1568 1569 1571 1572 1573 1574 1576 1577 1578 1579 1580 1581 1581 1582 1583 1583 1584 1585 1585 1586 1586 1586 1585 1585 1585 1585 1585 1584 1583 1581 1580 1579 1580 1582 1582 1579 1577 1576 1573 1571 1570 1569 1568 1567 1564 1563
1482 1481 1481 1482 1485 1488 1490 1493 1496 1500 1503 1506 1510 1513 1517 1520 1523 1525 1527 1529 1531 1534 1536 1539 1541 1542 1544 1545 1547 1548 1550 1551 1553 1555 1557 1559 1562 1564 1565 1566 1567 1568 1569 1571 1572 1573 1574 1576 1577 1578 1579 1579 1580 1580 1581 1582 1582 1583 1584 1584 1584 1584 1583 1583 1583 1583 1582 1580 1578 1577 1576 1577 1580 1580 1578 1576 1574 1572 1570 1569 1568 1567 1566 1563 1560
1479 1479 1479 1481 1483 1484 1487 1490 1493 1496 1499 1502 1506 1509 1513 1517 1519 1522 1524 1526 1528 1530 1533 1535 1538 1540 1541 1542 1544 1545 1546 1548 1550 1552 1554 1556 1559 1561 1562 1564 1564 1565 1567 1568 1569 1571 1572 1573 1574 1575 1576 1577 1577 1578 1578 1579 1580 1580 1581 1582 1582 1582 1581 1581 1581 1581 1580 1578 1576 1574 1573 1575 1577 1577 1576 1574 1572 1570 1569 1568 1567 1567 1565 1563 1560
1476 1477 1477 1478 1479 1481 1483 1486 1489 1492 1495 1498 1501 1505 1509 1513 1515 1518 1521 1523 1525 1527 1529 1532 1534 1537 1538 1539 1541 1542 1544 1545 1547 1549 1551 1553 1556 1558 1560 1561 1562 1563 1564 1565 1566 1568 1569 1570 1571 1572 1573 1574 1575 1575 1576 1576 1577 1578 1579 1579 1579 1580 1579 1579 1579 1579 1578 1576 1573 1570 1570 1572 1574 1573 1573 1572 1570 1568 1567 1566 1566 1565 1564 1562 1560
1472 1473 1474 1475 1476 1478 1481 1483 1485 1488 1491 1494 1498 1501 1504 1508 1511 1515 1518 1520 1522 1524 1526 1529 1531 1534 1536 1537 1538 1540 1541 1542 1544 1546 1548 1550 1553 1555 1557 1558 1560 1561 1562 1562 1564 1565 1566 1567 1568 1569 1570 1571 1572 1572 1573 1573 1574 1575 1575 1576 1576 1577 1577 1577 1577 1576 1576 1574 1571 1567 1566 1569 1571 1569 1569 1569 1567 1566 1565 1564 1563 1562 1561 1560 1558
1467 1469 1471 1473 1474 1476 1478 1480 1482 1485 1488 1491 1494 1497 1501 1504 1508 1511 1514 1517 1519 1521 1523 1526 1528 1530 1532 1535 1536 1537 1539 1540 1541 1543 1545 1547 1549 1552 1554 1556 1557 1558 1560 1560 1561 1562 1563 1564 1564 1565 1566 1568 1569 1570 1570 1571 1571 1572 1572 1573 1573 1574 1574 1574 1574 1574 1573 1572 1570 1566 1564 1565 1567 1565 1565 1565 1564 1563 1562 1561 1560 1559 1558 1556 1554
1465 1466 1468 1470 1471 1473 1475 1477 1480 1482 1485 1488 1490 1493 1496 1500 1503 1507 1510 1513 1516 1518 1520 1522 1524 1526 1529 1531 1533 1535 1536 1538 1539 1541 1542 1544 1546 1548 1551 1553 1554 1555 1556 1558 1558 1559 1560 1560 1561 1562 1563 1564 1565 1567 1568 1568 1569 1569 1569 1569 1570 1570 1570 1570 1571 1571 1571 1570 1567 1564 1561 1562 1563 1562 1561 1561 1561 1559 1558 1557 1557 1556 1555 1553 1551
1464 1463 1463 1465 1467 1469 1472 1474 1476 1479 1482 1484 1486 1489 1492 1495 1499 1503 1507 1510 1512 1515 1517 1519 1521 1523 1525 1527 1530 1532 1534 1535 1537 1538 1539 1541 1543 1546 1547 1549 1550 1551 1553 1554 1555 1556 1557 1557 1558 1559 1559 1560 1562 1563 1564 1565 1566 1566 1566 1566 1567 1567 1567 1568 1568 1568 1568 1567 1565 1561 1559 1559 1559 1559 1559 1559 1558 1557 1556 1555 1554 1554 1553 1551 1549
1461 1460 1460 1461 1463 1465 1467 1470 1473 1476 1478 1480 1482 1485 1488 1492 1496 1499 1503 1506 1509 1511 1513 1515 1518 1520 1522 1524 1526 1528 1531 1532 1534 1535 1537 1539 1541 1542 1544 1546 1547 1548 1549 1550 1551 1552 1553 1554 1555 1556 1556 1557 1558 1559 1560 1561 1562 1562 1563 1564 1564 1564 1565 1566 1566 1566 1566 1565 1562 1559 1556 1556 1557 1557 1557 1558 1556 1555 1554 1553 1552 1552 1551 1550 1548
1455 1456 1456 1457 1459 1461 1464 1467 1469 1472 1474 1476 1479 1482 1485 1489 1492 1496 1500 1503 1506 1508 1510 1512 1514 1516 1519 1521 1522 1524 1527 1529 1531 1532 1534 1536 1538 1539 1541 1542 1543 1544 1545 1546 1547 1548 1549 1550 1551 1552 1553 1554 1555 1556 1557 1557 1558 1559 1560 1560 1560 1560 1561 1563 1564 1564 1564 1562 1560 1558 1555 1553 1554 1556 1556 1557 1555 1553 1553 1552 1551 1551 1550 1549 1548
1449 1452 1453 1456 1458 1459 1461 1464 1466 1468 1471 1474 1477 1480 1483 1487 1490 1493 1497 1500 1503 1505 1507 1509 1511 1513 1516 1518 1519 1521 1523 1525 1527 1529 1531 1532 1534 1536 1537 1538 1540 1541 1541 1543 1543 1544 1545 1546 1547 1548 1549 1550 1551 1552 1553 1554 1554 1555 1556 1556 1556 1557 1558 1560 1561 1561 1560 1559 1557 1556 1554 1550 1551 1553 1554 1555 1554 1553 1552 1551 1550 1550 1550 1548 1547
1446 1449 1452 1454 1456 1457 1459 1461 1463 1466 1469 1472 1475 1478 1480 1484 1486 1490 1493 1496 1499 1502 1504 1506 1508 1510 1512 1514 1516 1518 1519 1521 1523 1525 1527 1528 1530 1532 1533 1534 1536 1537 1538 1539 1539 1540 1541 1541 1542 1543 1545 1546 1548 1548 1549 1550 1550 1551 1551 1551 1552 1553 1554 1556 1557 1557 1558 1556 1554 1554 1553 1550 1549 1549 1550 1551 1551 1550 1550 1550 1549 1549 1549 1547 1545
1443 1446 1448 1451 1453 1454 1456 1459 1461 1464 1468 1470 1472 1475 1477 1480 1483 1486 1489 1492 1495 1498 1501 1503 1506 1508 1509 1511 1513 1515 1516 1517 1519 1521 1523 1525 1526 1528 1529 1530 1532 1533 1534 1535 1535 1536 1537 1537 1538 1539 1540 1542 1543 1544 1545 1546 1546 1546 1547 1548 1549 1549 1550 1551 1552 1553 1555 1554 1552 1551 1551 1550 1549 1548 1548 1549 1548 1547 1547 1548 1548 1547 1547 1547 1545
1440 1442 1445 1448 1450 1452 1454 1456 1459 1463 1465 1467 1469 1471 1474 1477 1480 1482 1485 1488 1491 1494 1497 1500 1503 1505 1507 1508 1510 1512 1513 1514 1515 1517 1519 1521 1522 1524 1525 1526 1528 1529 1530 1530 1531 1532 1533 1534 1534 1535 1536 1537 1538 1539 1540 1541 1542 1542 1543 1544 1544 1545 1545 1546 1548 1549 1550 1551 1550 1549 1548 1547 1548 1547 1547 1547 1547 1546 1545 1545 1546 1546 1547 1547 1546
1436 1439 1442 1444 1447 1449 1452 1454 1457 1460 1462 1464 1466 1468 1470 1473 1476 1478 1481 1484 1488 1490 1493 1496 1499 1501 1503 1505 1507 1508 1510 1511 1512 1513 1515 1517 1518 1520 1521 1522 1523 1524 1525 1527 1528 1529 1529 1530 1531 1532 1533 1533 1534 1535 1536 1537 1537 1538 1539 1540 1540 1540 1540 1541 1542 1544 1544 1545 1546 1546 1545 1544 1543 1544 1544 1545 1545 1544 1543 1543 1543 1544 1544 1544 1543
1432 1435 1438 1441 1445 1447 1450 1453 1456 1458 1460 1461 1462 1464 1466 1469 1472 1474 1477 1480 1483 1486 1489 1492 1495 1497 1500 1502 1503 1505 1507 1508 1508 1509 1511 1513 1514 1515 1517 1518 1519 1520 1521 1523 1524 1525 1526 1527 1528 1529 1529 1530 1531 1532 1532 1533 1533 1534 1535 1535 1535 1535 1536 1537 1538 1538 1539 1540 1540 1541 1541 1541 1540 1540 1540 1541 1542 1541 1541 1541 1541 1541 1541 1541 1540
1429 1432 1434 1438 1442 1445 1448 1451 1454 1456 1458 1459 1459 1461 1463 1465 1468 1470 1473 1476 1479 1482 1485 1488 1490 1493 1496 1498 1499 1501 1503 1504 1504 1505 1507 1509 1510 1511 1513 1514 1515 1517 1518 1519 1520 1521 1522 1523 1525 1525 1526 1527 1528 1528 1529 1529 1530 1530 1531 1531 1531 1532 1532 1533 1533 1533 1534 1535 1536 1536 1537 1537 1537 1537 1537 1537 1538 1538 1539 1539 1539 1539 1539 1539 1538
1426 1429 1431 1435 1439 1442 1444 1448 1451 1453 1455 1456 1457 1458 1460 1462 1464 1466 1468 1471 1475 1478 1481 1483 1486 1488 1491 1493 1495 1497 1499 1501 1501 1501 1503 1504 1505 1507 1508 1510 1512 1513 1514 1515 1516 1517 1519 1520 1521 1522 1523 1525 1525 1525 1526 1526 1527 1527 1527 1527 1528 1528 1528 1529 1530 1530 1530 1531 1532 1533 1533 1533 1533 1534 1534 1534 1534 1535 1536 1537 1537 1537 1537 1537 1537
1423 1426 1428 1432 1436 1438 1441 1444 1447 1449 1451 1452 1454 1455 1456 1458 1460 1461 1463 1466 1469 1473 1476 1479 1481 1484 1486 1489 1491 1493 1495 1496 1496 1497 1497 1499 1501 1502 1504 1506 1508 1509 1510 1511 1512 1514 1515 1516 1518 1519 1520 1521 1521 1522 1522 1523 1523 1524 1524 1524 1525 1525 1526 1526 1526 1527 1528 1529 1530 1531 1530 1529 1530 1531 1531 1532 1533 1533 1534 1534 1534 1534 1535 1535 1536
1420 1423 1425 1428 1432 1435 1437 1440 1443 1445 1447 1449 1451 1451 1452 1454 1457 1458 1461 1463 1466 1469 1472 1474 1477 1479 1482 1484 1486 1488 1489 1490 1492 1493 1494 1495 1498 1500 1501 1503 1504 1506 1507 1509 1511 1512 1512 1513 1514 1515 1516 1517 1517 1518 1519 1519 1520 1520 1520 1521 1522 1522 1522 1523 1524 1525 1526 1527 1528 1528 1527 1527 1527 1528 1529 1530 1531 1531 1532 1532 1533 1533 1533 1534 1534
1417 1420 1422 1425 1428 1430 1433 1436 1438 1441 1443 1445 1445 1446 1448 1451 1453 1456 1458 1460 1463 1466 1469 1471 1474 1476 1479 1481 1482 1483 1484 1486 1489 1491 1492 1493 1496 1497 1499 1501 1502 1504 1506 1507 1508 1508 1508 1508 1509 1511 1512 1512 1513 1514 1515 1515 1515 1516 1517 1518 1518 1518 1519 1520 1522 1524 1524 1526 1527 1526 1526 1528 1530 1530 1529 1530 1530 1530 1531 1532 1532 1532 1532 1533 1533
1414 1416 1418 1420 1423 1425 1428 1430 1433 1436 1438 1439 1439 1441 1444 1447 1450 1453 1455 1458 1461 1464 1467 1469 1472 1474 1476 1478 1479 1480 1482 1485 1487 1489 1490 1491 1493 1495 1497 1499 1500 1501 1503 1504 1503 1503 1504 1504 1505 1507 1508 1509 1509 1510 1512 1512 1513 1513 1514 1514 1515 1516 1517 1519 1521 1522 1522 1522 1522 1522 1524 1527 1531 1534 1533 1531 1531 1531 1531 1531 1531 1532 1532 1532 1532
1410 1411 1413 1415 1417 1420 1423 1425 1427 1431 1433 1434 1435 1438 1440 1443 1447 1450 1453 1456 1459 1462 1465 1467 1469 1471 1474 1475 1476 1478 1480 1482 1484 1486 1487 1489 1490 1492 1494 1496 1498 1499 1500 1500 1500 1500 1501 1501 1502 1503 1504 1505 1506 1507 1509 1510 1510 1510 1511 1512 1513 1514 1515 1517 1518 1518 1518 1518 1518 1519 1520 1522 1526 1530 1531 1530 1529 1528 1528 1528 1530 1531 1531 1531 1530
1408 1408 1410 1411 1412 1415 1418 1420 1423 1426 1428 1429 1431 1434 1437 1440 1443 1446 1450 1454 1457 1460 1462 1464 1466 1469 1471 1472 1474 1476 1478 1480 1482 1484 1485 1487 1488 1490 1492 1494 1495 1496 1497 1497 1497 1498 1498 1499 1500 1501 1502 1503 1504 1506 1507 1508 1508 1508 1509 1510 1510 1511 1512 1513 1514 1514 1515 1517 1519 1519 1519 1520 1523 1525 1526 1526 1524 1524 1524 1525 1527 1529 1530 1530 1529
1403 1405 1407 1408 1409 1411 1413 1415 1418 1421 1424 1425 1427 1431 1434 1437 1440 1444 1448 1451 1454 1457 1459 1462 1464 1466 1468 1470 1472 1475 1477 1478 1480 1481 1483 1484 1486 1487 1489 1490 1491 1492 1493 1494 1494 1495 1496 1497 1498 1499 1500 1501 1502 1504 1504 1505 1506 1506 1507 1508 1509 1509 1509 1512 1514 1515 1516 1519 1519 1518 1518 1520 1523 1524 1525 1524 1523 1522 1522 1523 1524 1526 1527 1528 1528
1402 1405 1407 1408 1408 1409 1411 1412 1415 1418 1421 1422 1425 1429 1432 1436 1440 1444 1446 1449 1452 1454 1456 1459 1461 1464 1467 1469 1471 1473 1475 1476 1478 1479 1480 1482 1483 1484 1485 1486 1487 1488 1489 1490 1491 1492 1493 1495 1496 1497 1498 1499 1500 1501 1501 1502 1502 1504 1506 1508 1508 1507 1507 1510 1514 1517 1517 1518 1518 1517 1518 1520 1522 1523 1523 1523 1523 1522 1521 1522 1523 1524 1525 1526 1527
1406 1408 1409 1410 1410 1410 1410 1410 1411 1415 1419 1420 1422 1426 1429 1433 1438 1442 1445 1448 1450 1452 1454 1457 1459 1462 1465 1467 1469 1471 1472 1474 1475 1477 1478 1479 1481 1482 1483 1483 1484 1485 1486 1488 1489 1490 1491 1493 1494 1495 1495 1495 1496 1498 1498 1498 1499 1501 1503 1504 1504 1503 1504 1507 1511 1513 1515 1516 1517 1517 1517 1518 1520 1521 1521 1521 1521 1521 1520 1520 1522 1523 1524 1525 1526
1402 1403 1405 1408 1411 1411 1410 1408 1407 1411 1415 1417 1419 1422 1427 1431 1434 1437 1441 1445 1447 1449 1452 1456 1459 1461 1463 1464 1466 1468 1470 1471 1473 1474 1476 1477 1478 1480 1480 1480 1481 1482 1483 1485 1487 1487 1489 1490 1491 1492 1492 1492 1493 1494 1494 1495 1497 1498 1499 1500 1501 1501 1503 1505 1507 1510 1512 1513 1514 1515 1516 1517 1518 1520 1521 1520 1520 1520 1519 1519 1520 1522 1523 1524 1524
1398 1399 1401 1404 1408 1410 1408 1405 1404 1407 1411 1413 1415 1420 1424 1427 1430 1433 1437 1441 1444 1447 1451 1454 1457 1459 1460 1461 1463 1465 1467 1469 1471 1472 1473 1475 1476 1477 1477 1477 1479 1479 1480 1482 1483 1484 1486 1487 1488 1488 1489 1489 1490 1490 1490 1492 1494 1495 1496 1498 1500 1501 1502 1504 1506 1508 1510 1510 1511 1512 1513 1515 1517 1519 1520 1520 1519 1519 1518 1518 1519 1521 1522 1523 1523
1396 1398 1400 1402 1404 1406 1404 1400 1400 1403 1406 1410 1413 1417 1421 1425 1428 1432 1436 1440 1443 1446 1449 1451 1454 1455 1456 1458 1460 1463 1465 1466 1467 1469 1471 1472 1473 1473 1473 1475 1476 1477 1477 1478 1479 1481 1482 1484 1484 1485 1486 1486 1486 1487 1489 1490 1491 1492 1494 1496 1498 1500 1501 1504 1507 1509 1510 1510 1511 1511 1511 1514 1516 1518 1518 1519 1519 1518 1518 1518 1518 1519 1520 1521 1522
1395 1396 1398 1401 1404 1405 1402 1398 1397 1400 1403 1408 1412 1416 1420 1424 1428 1431 1435 1437 1440 1442 1445 1448 1450 1452 1453 1456 1458 1459 1461 1463 1464 1466 1467 1468 1468 1469 1471 1472 1473 1474 1474 1476 1477 1478 1479 1481 1481 1483 1483 1484 1484 1486 1488 1489 1490 1492 1493 1496 1497 1499 1501 1503 1506 1508 1510 1511 1511 1511 1512 1514 1516 1517 1517 1518 1518 1517 1517 1517 1517 1518 1519 1519 1519
1397 1397 1399 1400 1402 1403 1400 1397 1397 1399 1403 1407 1411 1415 1419 1423 1426 1429 1431 1434 1437 1440 1443 1446 1448 1450 1452 1454 1454 1455 1457 1459 1460 1462 1463 1463 1465 1467 1468 1470 1470 1471 1472 1473 1474 1476 1477 1478 1479 1481 1482 1483 1484 1487 1488 1490 1492 1494 1495 1497 1499 1501 1502 1503 1505 1507 1509 1510 1511 1511 1512 1514 1515 1516 1516 1517 1516 1516 1515 1516 1517 1517 1517 1517 1517
1398 1399 1401 1401 1400 1399 1397 1396 1398 1400 1403 1407 1410 1414 1418 1422 1425 1428 1431 1433 1436 1439 1442 1444 1446 1448 1450 1451 1452 1453 1455 1456 1457 1458 1459 1461 1462 1464 1466 1467 1467 1469 1470 1471 1472 1474 1475 1475 1477 1479 1481 1483 1484 1486 1488 1490 1492 1494 1495 1496 1498 1499 1500 1501 1503 1505 1506 1507 1508 1509 1510 1512 1513 1514 1515 1514 1514 1514 1514 1515 1515 1516 1515 1515 1515
1399 1400 1400 1400 1399 1397 1395 1396 1399 1402 1405 1407 1410 1414 1418 1421 1424 1427 1430 1433 1435 1438 1440 1443 1445 1447 1448 1450 1451 1452 1453 1454 1456 1457 1458 1460 1462 1463 1465 1466 1467 1468 1470 1471 1473 1474 1474 1475 1476 1479 1481 1482 1484 1486 1487 1489 1490 1491 1493 1495 1496 1497 1498 1498 1500 1501 1502 1503 1504 1506 1508 1510 1511 1512 1512 1512 1511 1512 1513 1513 1513 1513 1513 1513 1513
1402 1401 1400 1400 1399 1398 1396 1397 1400 1404 1407 1410 1412 1415 1418 1421 1424 1427 1430 1433 1435 1437 1439 1442 1444 1446 1448 1450 1451 1453 1454 1455 1456 1457 1458 1460 1461 1463 1464 1466 1467 1468 1470 1471 1473 1474 1475 1476 1477 1479 1481 1483 1486 1487 1489 1490 1491 1492 1493 1495 1496 1497 1498 1499 1500 1501 1501 1503 1505 1506 1508 1508 1509 1509 1509 1509 1510 1510 1511 1511 1511 1511 1511 1510 1510
1405 1404 1403 1402 1402 1401 1399 1400 1402 1406 1409 1413 1416 1418 1420 1422 1425 1428 1432 1434 1436 1437 1439 1441 1444 1446 1448 1450 1452 1454 1455 1456 1457 1458 1459 1460 1461 1463 1464 1466 1467 1468 1469 1470 1472 1474 1475 1477 1479 1481 1482 1484 1486 1488 1489 1490 1491 1492 1494 1495 1496 1496 1498 1499 1500 1500 1502 1503 1505 1506 1507 1508 1508 1508 1508 1508 1508 1508 1508 1508 1508 1508 1507 1507 1507
1408 1408 1407 1406 1406 1406 1407 1407 1409 1411 1413 1416 1418 1421 1424 1426 1428 1431 1433 1435 1436 1438 1439 1441 1444 1447 1449 1451 1453 1454 1456 1457 1458 1460 1461 1462 1463 1464 1465 1467 1468 1469 1471 1472 1473 1475 1477 1479 1480 1482 1483 1485 1487 1488 1489 1490 1491 1492 1494 1495 1496 1496 1497 1498 1499 1500 1501 1502 1503 1504 1505 1505 1505 1505 1505 1505 1505 1505 1505 1505 1505 1504 1504 1504 1504
1412 1412 1412 1410 1409 1410 1412 1414 1416 1418 1420 1422 1422 1424 1427 1430 1432 1434 1435 1436 1436 1437 1438 1441 1444 1447 1450 1452 1453 1455 1456 1457 1458 1460 1461 1462 1463 1465 1467 1468 1469 1470 1472 1473 1475 1476 1478 1479 1480 1482 1484 1485 1486 1488 1489 1490 1491 1492 1493 1494 1495 1495 1496 1498 1498 1499 1500 1500 1500 1501 1501 1502 1502 1502 1501 1502 1502 1502 1502 1502 1502 1501 1501 1501 1500
1416 1416 1417 1416 1415 1415 1417 1419 1422 1425 1427 1429 1429 1429 1431 1432 1434 1434 1436 1437 1437 1439 1441 1443 1446 1448 1451 1453 1454 1455 1456 1457 1457 1459 1460 1461 1462 1464 1467 1469 1470 1472 1473 1474 1476 1477 1478 1480 1481 1482 1484 1485 1486 1487 1489 1489 1490 1491 1492 1493 1494 1495 1495 1496 1497 1497 1498 1498 1498 1498 1498 1498 1498 1499 1499 1499 1499 1500 1499 1499 1499 1498 1498 1498 1497
1421 1421 1422 1422 1421 1421 1422 1425 1427 1430 1432 1434 1434 1434 1434 1434 1435 1435 1435 1437 1439 1441 1444 1446 1449 1451 1453 1455 1456 1457 1458 1459 1459 1460 1461 1462 1463 1465 1467 1469 1471 1473 1474 1475 1477 1478 1479 1481 1482 1483 1484 1485 1486 1487 1488 1489 1490 1490 1491 1492 1492 1493 1494 1494 1494 1495 1495 1495 1496 1496 1496 1496 1496 1496 1497 1497 1497 1497 1497 1497 1497 1496 1496 1496 1495
1424 1425 1426 1426 1426 1426 1428 1430 1432 1434 1436 1437 1437 1437 1437 1437 1438 1438 1437 1438 1440 1444 1446 1448 1450 1453 1455 1457 1458 1459 1460 1461 1462 1464 1465 1465 1465 1466 1467 1469 1471 1472 1474 1475 1477 1478 1480 1481 1482 1483 1484 1485 1486 1487 1488 1488 1489 1489 1490 1491 1491 1492 1492 1492 1492 1493 1493 1493 1493 1494 1494 1494 1494 1495 1495 1495 1494 1494 1494 1494 1494 1494 1494 1494 1493
1427 1427 1427 1428 1428 1429 1431 1433 1435 1437 1437 1438 1438 1438 1438 1438 1439 1440 1440 1441 1443 1446 1448 1450 1452 1454 1456 1458 1460 1462 1463 1464 1465 1467 1467 1468 1467 1468 1470 1471 1472 1473 1474 1476 1477 1479 1480 1482 1483 1484 1485 1485 1486 1486 1487 1487 1488 1489 1489 1490 1490 1491 1491 1492 1492 1492 1492 1491 1491 1492 1492 1492 1492 1493 1492 1492 1492 1492 1492 1492 1492 1492 1492 1492 1491